User: anonymous   Login
Location: Simi Valley
(34.2690°N, 118.7810°W)
Time: 18:10:19
(UTC-07:00)
Language:

TITAN 4B R/B - Orbit

View from above orbital plane
View from above orbital plane
View from above satellite
View from above satellite

Ground track
Ground track

The orbit data is extracted from the following two-line orbital elements,

1 28647U 05016B   15087.82279339 0.00004800  00000-0  29813-3 0    04
2 28647  56.9986  65.1751 0130577 308.2867  51.7133 15.02337028    05
Epoch (UTC): 28 March 2015 19:44:49
Eccentricity: 0.0130577
inclination: 56.9986°
perigee height: 469 km
apogee height: 650 km
right ascension of ascending node: 65.1751°
argument of perigee: 308.2867°
revolutions per day: 15.02337028
mean anomaly at epoch: 51.7133°
orbit number at epoch: 0

The dashed part of the orbit path shows where the satellite is in the earth's shadow,  

DLR